Location: Antichan
(42.9728°N, 0.6667°E)
Time: 13:45:24
(UTC+00:00)

SL-08 R/B - Pass Details

Date: 15 August 2020
Orbit: 945 x 1007 km, 82.9° (Epoch: 25 September)

Event Time Altitude Azimuth Distance (km) Brightness Sun altitude
Exits shadow 21:59:43 71° 129° (SE) 998 4.3 -26.8°
Maximum altitude 22:00:08 74° 95° (E) 984 4.3 -26.9°
Drops below altitude 10° 22:06:14 10° 11° (N) 2,685 7.4 -27.5°
Sets 22:08:45 0° 10° (N) 3,640 8.2 -27.7°
